Regional Weather Roundup
Issued by NWS

Home | Current Version | Previous Version | Graphics & Text | Print | Product List | Glossary On
Versions: 1 2 3 4 5 6 7 8 9 10 11 12 13 14 15 16 17 18 19 20 21 22 23 24 25 26 27 28 29 30 31 32 33 34 35 36 37 38 39 40 41 42 43 44 45 46 47 48 49 50
000
ASUS43 KDMX 050307
RWRIA

WEATHER ROUNDUP FOR IOWA
NATIONAL WEATHER SERVICE DES MOINES IA
1000 PM CDT FRI SEP 04 2015

NOTE: "FAIR" INDICATES FEW OR NO CLOUDS BELOW 12,000 FEET WITH NO
SIGNIFICANT WEATHER AND/OR OBSTRUCTIONS TO VISIBILITY.

* - THESE STATIONS ARE NOT NWS STATIONS...THUS NOT UNDER NWS
QUALITY CONTROL.  THEY ALSO DO NOT REPORT WEATHER SUCH
AS PRECIPITATION OR FOG.

IAZ001>003-012>014-020>022-031>034-043>046-050400-
   NORTHWEST IOWA

CITY           SKY/WX    TMP DP  RH WIND       PRES   REMARKS
CARROLL *      CLEAR     75  73  94 SE8       29.95S
CHEROKEE *     PTCLDY    77  72  83 SE12G17   29.92R
DENISON *      CLEAR     77  70  78 SE10G17   29.91S
LE MARS *      CLEAR     77  72  83 SE10      29.88S
ORANGE CITY *  CLEAR     77  72  83 SE8G17    29.90R
SHELDON *      CLEAR     77  70  78 SE14G20   29.89S
SIOUX CITY     PTCLDY    77  70  79 SE10      29.87R
SPENCER        PTCLDY    78  71  79 SE12      29.93F HAZE    HX  80
STORM LAKE *   CLEAR     75  72  88 SE8       29.96R
$$

IAZ055>058-069>071-079>083-090>094-050400-
   SOUTHWEST IOWA

CITY           SKY/WX    TMP DP  RH WIND       PRES   REMARKS
ATLANTIC *     CLEAR     77  70  78 S8        29.95R
AUDUBON *      CLEAR     73  70  88 CALM      29.97R
CLARINDA *     CLEAR     73  70  88 S5        29.97R
COUNCIL BLFS * CLEAR     79  70  73 SE14G21   29.93R HX  81
CRESTON *      CLEAR     77  70  78 S7        29.99R
LAMONI         MOCLDY    80  70  71 S6        29.98R HX  83
RED OAK *      CLEAR     75  70  83 S6        29.95R
SHENANDOAH *   CLEAR     77  70  78 S7        29.94S
$$

IAZ047>049-059>061-072>074-084-050400-
   CENTRAL IOWA

CITY           SKY/WX    TMP DP  RH WIND       PRES   REMARKS
AMES           CLOUDY    76  72  87 SE7       29.97R
ANKENY *       CLEAR     79  73  83 S3        29.97R HX  82
CHARITON *     CLOUDY    77  72  83 SE5       29.98R
DES MOINES     CLOUDY    83  70  64 SE6       29.97R HX  87
GRINNELL*      MOCLDY    77  70  78 CALM      30.00R
KNOXVILLE *    MOCLDY    79  70  73 SE5       29.97R HX  81
MARSHALLTOWN   CLOUDY    77  72  84 E5        29.98R
PELLA *        MOCLDY    77  73  88 SE3       29.99R
PERRY *          N/A     77  73  88 SE6       29.97R
$$

IAZ004>006-015-016-023>025-035-036-050400-
   NORTH CENTRAL IOWA

CITY           SKY/WX    TMP DP  RH WIND       PRES   REMARKS
ALGONA *       CLEAR     77  72  83 SE10      29.96S
CLARION *      CLEAR     77  72  83 SE8       29.98R
ESTHERVILLE    MOCLDY    76  71  85 S12       29.94S
FORT DODGE *   MOCLDY    77  70  78 SE6       29.97S
MASON CITY     LGT RAIN  76  74  93 S7        30.01R
FOREST CITY *  CLEAR     73  73 100 SE6       29.99R
IOWA FALLS *     N/A     77  73  88 E5        30.00R
$$

IAZ007>011-017>019-026>030-037>042-050>054-066-050400-
   NORTHEAST IOWA

CITY           SKY/WX    TMP DP  RH WIND       PRES   REMARKS
CEDAR RAPIDS   MOCLDY    75  73  93 SE3       29.99R
CHARLES CITY * CLOUDY    77  75  94 SE6       30.01R
CLINTON *      CLEAR     73  72  94 E6        30.03S
DECORAH *      CLEAR     75  72  88 SE3       30.00S
DUBUQUE        CLEAR     76  71  85 SE7       30.03R
MONTICELLO *   CLEAR     73  72  94 CALM      30.00S
OELWEIN *      CLOUDY    75  73  94 SE6       30.01S
WATERLOO       CLOUDY    77  73  87 SE5       29.98R
$$

IAZ064-065-067-068-078-050400-
   EAST CENTRAL IOWA

CITY           SKY/WX    TMP DP  RH WIND       PRES   REMARKS
DAVENPORT      CLEAR     73  70  90 SE3       30.01R
IOWA CITY      PTCLDY    78  73  84 CALM      30.00R HX  81
MT. PLEASANT * CLEAR     77  68  73 SE3       30.00R
MUSCATINE *    CLEAR     75  72  88 NW3       30.00R
QUAD CITIES    CLEAR     74  70  87 CALM      30.00R
$$

IAZ062-063-075>077-085>089-095>099-050400-
   SOUTHEAST IOWA

CITY           SKY/WX    TMP DP  RH WIND       PRES   REMARKS
BURLINGTON     CLEAR     78  71  79 CALM      30.00R HX  80
FAIRFIELD *    CLEAR     73  68  83 SE6       29.99S
FORT MADISON * CLEAR     77  70  78 CALM      30.02R
KEOKUK *       CLEAR     77  72  83 SE3       30.00R
OSKALOOSA *      N/A     77  70  78 SE5       29.99S
CENTERVILLE *  CLEAR     73  70  88 SE5       30.01R
OTTUMWA        PTCLDY    76  71  85 SE6       29.97S
WASHINGTON *     N/A    N/A N/A N/A MISG        N/A
$$

ABBREVIATIONS USED IN REMARKS
   TC - TEMPERATURES IN CELSIUS
  WCI - WIND CHILL INDEX
   HX - HEAT INDEX
  VSB - VISIBILITY
$$




USA.gov is the U.S. government's official web portal to all federal, state and local government web resources and services.